TimeCST,TemperatureF,Dew PointF,Humidity,Sea Level PressureIn,VisibilityMPH,Wind Direction,Wind SpeedMPH,Gust SpeedMPH,PrecipitationIn,Events,Conditions,WindDirDegrees,DateUTC
12:15 AM,29.3,23.5,79,30.11,10.0,South,6.9,-,N/A,,Overcast,170,2012-12-06 06:15:00
12:55 AM,29.5,23.9,80,30.11,10.0,South,6.9,-,N/A,,Overcast,180,2012-12-06 06:55:00
1:15 AM,29.8,23.9,79,30.10,10.0,SSE,5.8,-,N/A,,Overcast,160,2012-12-06 07:15:00
1:35 AM,30.0,24.1,79,30.07,10.0,SE,8.1,-,N/A,,Overcast,140,2012-12-06 07:35:00
1:55 AM,30.0,24.4,80,30.07,10.0,SSE,9.2,-,N/A,,Overcast,150,2012-12-06 07:55:00
2:15 AM,30.2,24.6,80,30.05,10.0,SSE,15.0,-,N/A,,Overcast,150,2012-12-06 08:15:00
2:35 AM,30.6,24.8,79,30.04,10.0,SSE,10.4,-,N/A,,Overcast,160,2012-12-06 08:35:00
2:55 AM,30.9,24.8,78,30.01,10.0,SSE,16.1,20.7,N/A,,Overcast,150,2012-12-06 08:55:00
3:15 AM,31.1,24.8,77,30.02,10.0,South,8.1,-,N/A,,Overcast,170,2012-12-06 09:15:00
3:55 AM,32.0,24.8,75,29.99,10.0,SSE,6.9,-,N/A,,Overcast,160,2012-12-06 09:55:00
4:15 AM,32.5,25.5,75,29.97,10.0,SSE,15.0,20.7,N/A,,Light Drizzle,150,2012-12-06 10:15:00
4:35 AM,33.8,25.5,72,29.98,10.0,SW,13.8,20.7,N/A,,Overcast,220,2012-12-06 10:35:00
4:55 AM,33.3,25.9,74,30.00,10.0,WSW,9.2,-,N/A,,Overcast,240,2012-12-06 10:55:00
5:15 AM,32.9,26.1,76,29.97,10.0,South,11.5,-,N/A,,Overcast,180,2012-12-06 11:15:00
5:35 AM,32.4,26.2,78,29.97,10.0,South,11.5,18.4,N/A,,Overcast,170,2012-12-06 11:35:00
5:55 AM,32.0,27.1,82,29.94,10.0,SSE,16.1,20.7,N/A,Rain,Light Rain,150,2012-12-06 11:55:00
6:15 AM,32.2,27.0,81,29.95,10.0,SSE,9.2,-,N/A,,Overcast,160,2012-12-06 12:15:00
6:35 AM,32.2,26.6,80,29.96,10.0,South,9.2,-,N/A,,Overcast,170,2012-12-06 12:35:00
6:55 AM,32.2,26.8,80,29.95,10.0,South,10.4,16.1,N/A,,Overcast,170,2012-12-06 12:55:00
7:35 AM,32.2,27.3,82,29.92,10.0,SSE,11.5,18.4,N/A,,Overcast,160,2012-12-06 13:35:00
7:55 AM,32.5,27.3,81,29.91,10.0,South,11.5,-,N/A,,Overcast,170,2012-12-06 13:55:00
8:15 AM,32.9,27.5,81,29.92,10.0,South,8.1,-,N/A,,Overcast,190,2012-12-06 14:15:00
8:35 AM,33.1,27.9,81,29.93,10.0,SSW,6.9,-,N/A,,Overcast,200,2012-12-06 14:35:00
8:55 AM,33.4,28.4,82,29.92,10.0,South,9.2,-,N/A,,Drizzle,180,2012-12-06 14:55:00
9:15 AM,34.2,28.8,81,29.91,10.0,South,10.4,16.1,N/A,,Overcast,180,2012-12-06 15:15:00
9:35 AM,34.7,28.6,78,29.91,10.0,South,12.7,-,N/A,,Overcast,180,2012-12-06 15:35:00
9:55 AM,35.2,28.9,78,29.91,10.0,South,9.2,16.1,N/A,,Overcast,190,2012-12-06 15:55:00
10:15 AM,35.6,28.9,77,29.90,10.0,South,12.7,17.3,N/A,,Overcast,180,2012-12-06 16:15:00
10:55 AM,36.1,29.3,76,29.86,10.0,South,15.0,20.7,N/A,,Overcast,180,2012-12-06 16:55:00
11:15 AM,36.1,29.3,76,29.81,10.0,South,21.9,27.6,N/A,,Overcast,170,2012-12-06 17:15:00
11:35 AM,36.1,31.1,82,29.83,10.0,SW,10.4,18.4,N/A,Rain,Light Rain,220,2012-12-06 17:35:00
11:55 AM,37.0,31.1,79,29.85,10.0,SW,5.8,19.6,N/A,,Overcast,230,2012-12-06 17:55:00
12:15 PM,38.1,31.3,76,29.84,10.0,SSW,9.2,-,N/A,,Scattered Clouds,200,2012-12-06 18:15:00
12:35 PM,39.2,31.5,74,29.83,10.0,SSW,9.2,-,N/A,,Mostly Cloudy,210,2012-12-06 18:35:00
12:55 PM,39.7,31.3,72,29.82,10.0,SSW,12.7,-,N/A,,Overcast,210,2012-12-06 18:55:00
1:15 PM,40.5,31.6,71,29.81,10.0,SSW,12.7,17.3,N/A,,Overcast,210,2012-12-06 19:15:00
1:35 PM,40.3,31.6,71,29.80,10.0,SSW,11.5,-,N/A,,Overcast,210,2012-12-06 19:35:00
1:55 PM,40.3,31.6,71,29.79,10.0,SSW,13.8,-,N/A,,Overcast,210,2012-12-06 19:55:00
2:15 PM,40.5,31.8,71,29.79,10.0,SW,8.1,-,N/A,,Overcast,220,2012-12-06 20:15:00
2:35 PM,40.5,31.8,71,29.79,10.0,SSW,10.4,-,N/A,,Overcast,210,2012-12-06 20:35:00
2:55 PM,40.5,31.8,71,29.79,10.0,SSW,10.4,-,N/A,,Scattered Clouds,210,2012-12-06 20:55:00
3:15 PM,40.5,32.0,72,29.79,10.0,SSW,9.2,-,N/A,,Clear,210,2012-12-06 21:15:00
3:35 PM,40.3,32.0,72,29.79,10.0,SW,8.1,-,N/A,,Clear,220,2012-12-06 21:35:00
3:55 PM,40.1,32.0,73,29.80,10.0,SW,5.8,-,N/A,,Clear,230,2012-12-06 21:55:00
4:15 PM,40.1,32.0,73,29.81,10.0,WSW,3.5,-,N/A,,Clear,250,2012-12-06 22:15:00
4:55 PM,39.6,32.0,74,29.81,10.0,Calm,Calm,-,N/A,,Overcast,0,2012-12-06 22:55:00
5:15 PM,39.4,32.4,76,29.82,10.0,SW,4.6,-,N/A,,Overcast,230,2012-12-06 23:15:00
6:15 PM,40.1,33.8,78,29.83,10.0,WSW,6.9,-,N/A,,Overcast,250,2012-12-07 00:15:00
6:35 PM,40.1,34.2,79,29.83,10.0,WSW,9.2,-,N/A,,Overcast,240,2012-12-07 00:35:00
6:55 PM,39.7,34.2,80,29.84,10.0,West,8.1,-,N/A,,Overcast,260,2012-12-07 00:55:00
7:15 PM,39.4,33.8,80,29.85,10.0,West,9.2,-,N/A,,Overcast,280,2012-12-07 01:15:00
7:35 PM,37.8,31.8,79,29.85,10.0,NW,9.2,17.3,N/A,,Mostly Cloudy,310,2012-12-07 01:35:00
7:55 PM,36.0,30.2,80,29.87,10.0,WNW,5.8,-,N/A,,Scattered Clouds,290,2012-12-07 01:55:00
8:15 PM,34.7,29.3,81,29.87,10.0,WNW,4.6,-,N/A,,Clear,290,2012-12-07 02:15:00
8:35 PM,33.8,29.1,83,29.89,10.0,West,3.5,-,N/A,,Clear,270,2012-12-07 02:35:00
8:55 PM,32.9,28.9,85,29.89,10.0,West,3.5,-,N/A,,Clear,260,2012-12-07 02:55:00
9:15 PM,32.4,28.8,87,29.89,10.0,WSW,3.5,-,N/A,,Clear,250,2012-12-07 03:15:00
9:35 PM,32.0,28.4,87,29.89,10.0,Calm,Calm,-,N/A,,Mostly Cloudy,0,2012-12-07 03:35:00
9:55 PM,32.0,28.2,86,29.89,10.0,West,3.5,-,N/A,,Mostly Cloudy,270,2012-12-07 03:55:00
10:15 PM,32.0,28.0,85,29.89,10.0,Calm,Calm,-,N/A,,Overcast,0,2012-12-07 04:15:00
10:35 PM,32.0,27.9,85,29.88,10.0,West,3.5,-,N/A,,Overcast,280,2012-12-07 04:35:00
10:55 PM,32.0,27.9,85,29.89,10.0,WSW,3.5,-,N/A,,Mostly Cloudy,250,2012-12-07 04:55:00
11:15 PM,32.0,27.5,83,29.89,10.0,Calm,Calm,-,N/A,,Scattered Clouds,0,2012-12-07 05:15:00
11:35 PM,31.6,27.3,84,29.89,10.0,West,4.6,-,N/A,,Scattered Clouds,270,2012-12-07 05:35:00
11:55 PM,31.1,27.1,85,29.89,10.0,Calm,Calm,-,N/A,,Mostly Cloudy,0,2012-12-07 05:55:00